Wind_Speed
9 9 8 8 8 9 8 7 8 8 7 8 8 8 8 9 11 12 11 12 14 15 16 16 17 17 17 17 17 17 17 18 18 18 19 20 20 18 19 20 20 21 21 22 22 22 22 22 23 24 24 23 23 24 24 24 25 26 26 26 28 28 29 30 30 31 31 30 29 31 32 31 31 31 31 31 30 28 27 28 27 26 27 28 29
7 7 8 7 7 7 8 7 8 7 8 9 9 8 9 10 12 14 15 15 16 17 17 17 18 17 17 18 17 17 18 18 18 18 18 19 20 19 20 21 22 23 23 23 23 23 22 22 24 25 24 23 25 25 25 26 26 27 28 28 28 30 31 32 32 31 32 32 31 31 32 33 32 31 30 30 30 29 28 28 28 27 26 26 27
7 7 7 6 5 6 7 6 6 7 8 9 9 9 11 11 13 15 16 17 17 17 18 19 19 19 19 18 18 17 18 18 18 18 18 19 20 20 22 23 24 24 25 25 24 23 23 22 23 25 24 24 25 25 25 26 27 28 29 29 29 30 32 33 34 33 33 34 34 33 33 33 32 31 29 29 30 29 29 28 28 28 27 25 24
6 6 6 6 5 5 6 5 6 8 10 10 11 12 13 13 15 17 17 18 19 19 20 20 20 21 20 18 18 18 18 19 19 20 20 20 21 22 23 24 24 23 24 24 24 23 24 24 24 24 25 25 25 25 26 26 27 28 29 29 29 30 30 32 33 34 34 34 34 34 33 32 32 31 30 30 29 28 28 28 27 27 25 24 23
6 6 6 6 5 5 6 7 7 9 11 13 14 14 14 15 17 18 19 19 20 20 20 21 21 21 21 19 20 19 19 20 21 22 22 22 22 23 23 23 23 23 23 24 23 23 24 25 25 26 25 25 25 26 28 28 29 29 29 30 30 30 29 30 31 32 32 31 32 32 32 32 33 32 31 30 29 29 28 27 27 25 23 23 22
6 5 5 5 6 6 7 8 9 10 13 15 15 15 15 16 18 20 20 20 20 20 21 21 20 21 20 20 21 21 21 22 23 23 23 23 23 23 23 23 23 22 23 24 24 24 25 25 26 26 26 25 26 27 28 28 29 29 29 29 30 30 30 30 30 30 29 28 28 28 28 30 31 30 30 29 27 26 26 24 24 24 23 23 23
4 5 5 6 7 8 9 10 12 13 15 16 17 19 19 19 20 21 21 21 22 22 22 22 21 21 21 22 23 24 24 24 24 24 24 24 24 24 23 23 23 23 24 25 26 26 27 27 27 27 27 27 28 28 29 29 29 29 29 29 30 30 30 30 30 30 28 27 26 26 27 28 29 29 29 28 25 24 23 23 23 24 24 25 25
4 5 6 8 10 11 12 13 15 17 18 19 20 21 22 22 23 23 23 24 24 23 23 23 22 23 23 24 26 26 26 26 25 25 25 25 25 25 24 25 25 25 26 27 27 28 29 28 28 28 28 28 28 29 29 29 29 30 30 30 30 30 30 30 30 29 29 28 28 28 28 28 29 29 28 27 25 24 23 23 24 25 26 26 27
8 9 11 12 13 15 16 17 18 20 20 21 22 22 23 24 24 24 24 24 24 24 24 24 24 24 25 26 27 27 27 27 27 27 26 26 26 26 26 26 27 27 28 29 29 30 30 29 29 29 30 29 29 30 30 30 30 30 30 30 30 30 30 30 30 30 30 29 29 29 29 29 30 30 29 27 26 26 26 26 26 27 28 29 30
12 13 15 16 17 18 19 20 21 21 22 22 23 23 24 25 25 24 24 24 24 24 24 25 25 25 26 27 28 28 28 28 28 28 28 28 28 28 28 28 29 29 30 30 31 31 31 30 30 30 30 30 30 30 30 30 31 31 31 31 31 30 30 30 31 31 30 30 31 31 31 32 32 32 31 29 29 29 30 30 30 31 31 32 32
14 16 17 18 19 20 21 22 22 23 24 24 24 25 25 26 25 25 24 24 24 25 25 26 27 27 27 28 29 29 29 29 30 30 30 30 30 30 30 30 31 31 32 32 32 32 32 32 31 31 31 31 32 32 32 32 32 32 32 32 32 32 31 31 31 32 32 32 32 33 34 34 34 34 34 33 33 34 34 34 34 34 34 34 35
16 17 19 20 21 22 22 23 24 24 25 25 26 26 26 26 25 25 25 25 26 26 27 27 28 28 29 30 30 31 31 31 31 32 32 32 32 32 32 33 33 33 33 33 33 33 33 33 33 32 31 32 33 33 33 34 34 34 34 33 33 33 32 32 32 33 33 33 34 35 36 36 36 36 36 36 37 38 38 38 38 38 38 38 38
18 20 21 22 23 23 24 24 25 26 26 27 28 27 26 26 26 26 26 27 27 28 29 29 30 30 31 32 32 32 33 33 33 33 33 34 34 34 34 34 34 34 34 34 33 33 34 34 35 34 33 33 34 35 35 35 35 36 35 35 35 35 34 34 35 35 35 35 35 36 37 37 38 39 39 39 40 41 41 42 42 42 42 42 42
21 22 23 23 24 25 26 26 27 27 28 28 28 28 28 28 27 28 28 28 29 29 30 31 32 32 33 33 34 34 34 35 35 35 35 35 35 35 35 35 35 35 34 34 34 34 35 35 36 36 36 36 36 36 36 37 37 38 38 38 37 37 37 37 37 37 37 37 37 38 38 39 39 40 41 41 42 43 44 45 45 46 46 46 46
23 24 25 26 26 27 27 28 28 28 29 29 29 29 29 29 29 29 29 30 30 31 32 32 33 33 34 34 35 35 35 35 36 36 36 36 37 37 37 36 36 35 35 35 35 36 36 37 37 37 38 38 39 39 39 39 39 39 40 40 40 40 41 41 41 40 40 40 40 40 40 41 41 42 43 43 44 45 47 48 48 49 49 49 49
25 26 26 27 27 28 28 29 29 29 29 29 30 30 30 30 30 30 30 31 31 32 33 33 34 34 35 36 36 36 37 37 37 37 37 37 37 38 38 38 37 36 36 37 37 38 38 39 39 40 40 41 42 41 41 42 42 42 43 43 43 44 44 45 45 44 44 44 44 44 44 44 44 44 45 45 46 48 49 50 51 52 52 52 53
26 27 27 28 28 29 29 29 30 30 30 30 30 30 30 30 30 30 31 31 32 33 34 35 35 36 37 37 37 37 37 38 38 38 38 38 38 39 39 39 39 38 39 39 40 41 41 42 42 43 43 44 44 44 45 45 45 46 46 46 46 46 46 47 46 47 47 48 48 48 48 48 48 48 48 48 49 50 51 53 54 54 55 55 56
27 28 28 29 29 30 30 30 30 30 30 29 29 29 30 30 31 31 32 33 34 35 36 36 37 37 37 38 38 38 38 39 39 39 39 39 40 40 40 41 41 41 41 42 42 43 44 45 46 46 46 45 46 46 47 47 47 48 48 48 48 48 48 48 48 48 49 50 50 51 51 51 51 51 51 52 52 52 53 54 56 56 57 58 59
29 29 29 29 29 29 29 29 29 30 30 30 30 31 31 32 32 33 34 34 35 36 37 37 38 38 38 38 38 39 39 40 40 40 41 41 42 42 42 43 43 44 44 45 45 46 46 47 47 48 47 47 47 48 49 49 49 50 50 50 51 51 51 51 51 51 51 52 53 53 54 54 54 54 55 55 55 55 56 56 57 58 58 59 60
29 29 29 29 30 30 30 31 31 31 31 31 31 32 32 33 33 34 35 36 37 37 38 38 38 38 38 38 39 40 40 40 41 42 43 43 44 44 45 45 46 47 47 48 48 48 49 49 49 49 49 49 50 51 52 52 53 53 54 54 54 54 55 55 55 55 55 55 56 56 56 56 56 56 57 57 57 57 57 57 58 58 58 59 59
30 30 30 31 31 32 32 32 31 31 31 31 32 33 34 35 35 36 37 37 38 38 38 37 37 38 39 40 41 41 41 41 43 44 45 46 46 46 47 47 48 49 49 50 50 51 52 52 52 53 53 54 54 54 55 56 56 57 57 58 58 58 58 58 58 59 58 58 58 58 58 57 57 56 56 56 57 57 57 57 57 57 57 58 58
32 32 32 32 32 31 31 31 31 31 32 33 34 35 36 37 37 37 37 36 37 37 37 37 38 39 40 41 42 43 44 44 45 46 47 48 48 48 49 50 51 52 52 53 54 55 55 56 56 57 57 58 58 58 58 58 58 58 59 59 59 60 60 60 60 60 60 60 60 59 59 58 58 57 56 56 56 56 56 56 56 56 57 57 56
34 34 33 32 32 31 31 32 33 34 34 35 36 36 36 36 35 35 35 36 36 36 37 39 40 41 42 43 44 46 46 46 48 50 51 51 52 52 53 54 54 54 54 55 55 56 56 57 57 58 58 58 59 58 58 58 58 58 58 58 59 59 59 58 58 59 59 59 59 58 57 57 57 56 56 56 55 56 56 55 53 51 52 53 54
34 33 32 32 32 32 33 33 34 34 35 34 34 34 34 34 34 35 36 37 37 38 39 41 42 43 44 45 47 49 49 49 51 53 53 54 55 55 56 56 56 56 56 56 56 56 56 56 57 57 57 58 57 57 57 57 57 56 56 56 57 56 56 55 55 56 56 56 56 56 56 56 56 56 55 55 55 55 55 54 52 50 49 50 50
30 30 29 30 31 31 32 32 32 32 32 32 33 33 34 35 35 36 38 39 39 40 42 43 45 46 47 48 50 52 52 52 53 53 53 54 55 55 56 57 57 57 58 58 58 58 58 57 57 57 57 57 57 56 56 56 56 55 55 55 55 54 54 54 54 54 54 54 54 53 53 54 55 55 54 54 53 52 51 51 51 50 48 48 46
26 26 27 28 29 30 30 30 30 31 32 33 34 35 36 37 38 39 40 42 42 43 45 47 48 49 50 51 51 52 53 53 53 53 53 54 54 55 56 57 57 58 58 59 59 59 58 58 57 57 57 57 57 57 56 56 56 55 55 56 55 54 54 55 55 54 53 53 52 52 52 53 52 51 51 50 50 50 48 48 49 48 47 45 42
25 25 26 27 29 29 30 30 31 32 33 36 37 38 39 41 41 42 44 45 46 48 48 49 50 50 51 51 51 52 53 53 52 52 53 54 54 55 55 55 56 56 57 57 57 58 58 58 59 59 59 59 59 59 59 59 59 59 59 59 58 58 57 57 57 56 55 54 54 53 52 49 47 48 48 48 50 49 47 45 44 42 41 40 38
24 25 26 27 29 31 32 32 33 34 36 38 40 41 43 44 45 45 47 47 48 49 49 49 49 50 50 51 51 51 52 52 52 52 53 53 53 54 55 55 56 56 57 57 58 59 60 61 62 62 63 63 63 63 63 63 63 62 62 63 62 61 61 60 60 59 58 57 56 55 52 49 48 50 52 52 51 49 46 44 41 38 39 39 38
25 26 28 29 30 32 34 35 37 38 40 42 44 45 46 47 47 47 48 49 49 49 49 49 49 49 50 51 51 51 51 52 52 52 53 53 54 54 55 57 58 59 60 61 61 62 63 63 64 65 65 65 65 65 65 65 64 64 63 63 62 61 61 60 59 56 54 53 53 53 53 54 54 53 52 51 48 45 43 42 42 42 43 42 40
27 28 30 31 33 35 37 38 40 42 43 44 46 47 48 48 49 50 50 50 50 50 49 49 49 49 50 50 50 50 50 51 51 52 53 54 56 57 58 59 60 62 63 64 64 64 63 63 63 62 61 60 60 60 60 60 59 58 57 55 55 54 54 55 52 46 42 42 44 45 47 50 52 52 51 49 45 40 38 39 41 43 44 44 43
30 32 33 34 36 38 39 41 42 43 45 46 47 49 50 49 50 50 50 49 49 48 47 46 46 47 48 48 48 49 50 51 52 53 54 56 58 59 60 62 63 63 64 64 63 62 60 59 57 55 53 51 50 49 49 48 47 46 45 44 44 44 44 45 44 40 37 38 41 42 42 44 46 49 52 53 52 48 45 43 44 46 47 48 47
33 34 36 37 39 40 41 43 44 45 46 46 47 48 48 48 47 47 47 46 46 45 44 44 45 45 46 47 47 48 50 51 53 54 56 57 59 60 61 62 62 61 60 58 56 54 52 50 48 46 44 42 41 41 41 40 39 38 37 36 36 36 36 36 36 35 35 37 39 40 40 41 41 42 45 50 54 56 57 56 53 50 46 44 43
36 37 39 40 41 42 43 44 44 45 45 45 44 44 44 44 44 44 44 44 44 43 43 44 45 45 46 47 48 49 50 52 53 55 56 57 58 59 59 58 57 55 53 51 48 46 44 41 39 37 36 35 35 35 35 35 34 34 33 33 32 32 32 32 32 31 32 34 36 37 38 39 39 40 41 43 45 49 54 58 59 55 47 42 43
38 39 40 41 42 42 43 43 43 43 43 42 42 42 42 42 42 42 42 43 43 42 43 44 45 45 46 47 48 49 50 52 53 54 55 56 56 56 54 53 50 48 46 44 42 40 38 35 34 32 31 30 30 30 30 31 31 31 31 32 32 32 31 31 31 31 32 33 34 35 36 37 38 39 40 41 42 43 46 49 55 59 56 51 50
38 39 40 40 41 41 41 41 41 41 41 41 41 41 41 41 41 41 42 43 43 43 44 44 45 46 46 47 48 49 50 51 52 52 53 53 53 52 50 48 46 44 42 40 38 37 35 33 32 31 30 29 28 28 28 29 29 29 30 30 31 31 31 31 32 32 32 32 32 32 33 34 35 36 36 37 37 38 40 42 46 52 57 58 57
38 39 39 40 40 40 41 40 40 40 40 40 40 40 40 40 40 41 41 42 43 44 44 44 45 46 46 47 48 48 49 50 50 50 50 50 49 47 45 44 42 40 38 37 36 34 33 32 31 30 30 29 29 28 28 28 28 29 29 29 30 30 31 31 32 32 32 32 32 33 33 33 34 34 34 33 32 31 32 35 37 41 46 53 55
39 39 40 41 41 41 40 40 40 39 39 39 39 39 40 40 41 41 42 42 43 44 44 45 45 46 46 46 47 47 47 47 47 47 46 44 43 41 40 38 36 35 34 33 31 30 29 29 28 28 28 27 27 27 27 28 28 28 28 29 29 29 30 30 31 31 32 32 32 33 33 34 34 34 33 32 30 28 28 29 31 32 35 40 47
39 40 41 41 41 41 40 40 40 40 39 39 40 40 40 40 41 41 42 42 42 43 44 44 45 45 45 45 45 45 45 44 44 42 41 39 37 36 34 33 32 31 30 28 27 26 25 25 25 25 25 25 25 26 26 26 27 27 28 28 29 29 29 30 30 31 31 32 32 32 32 33 33 33 32 31 29 28 27 28 29 29 30 32 36
40 41 41 41 40 40 40 40 40 40 40 40 40 40 40 40 41 41 41 42 42 43 43 44 44 44 44 44 43 43 42 41 39 38 36 34 33 32 32 32 31 30 29 27 27 26 25 25 25 25 25 26 26 26 27 28 28 29 29 29 29 30 30 30 30 30 30 31 31 32 32 32 32 32 32 32 30 29 28 28 28 29 29 30 31
42 42 42 41 41 41 41 41 41 40 40 40 40 40 40 40 40 41 41 41 42 42 42 43 43 42 42 41 41 40 38 37 35 34 32 32 32 32 32 32 31 29 28 27 27 27 27 27 27 27 27 27 27 28 29 30 31 31 31 32 32 32 32 32 31 31 31 31 31 31 31 31 32 32 32 32 32 31 30 30 30 30 30 30 30
43 42 42 41 41 41 41 41 40 40 40 39 39 39 39 40 40 40 41 41 42 42 42 42 41 41 41 40 39 37 36 34 33 32 31 32 32 33 32 32 30 29 28 27 27 27 27 27 27 27 28 28 29 29 30 31 32 32 33 32 32 32 32 32 32 32 32 32 32 32 32 32 32 32 32 32 32 32 32 32 33 33 33 34 33
41 41 41 40 40 40 40 39 39 38 38 38 38 38 39 39 40 40 41 41 42 42 41 41 41 40 39 38 37 36 34 32 31 31 32 33 34 34 33 32 30 29 28 27 27 27 27 28 28 28 29 30 30 31 31 32 33 33 33 32 32 31 31 31 32 32 33 33 33 34 34 34 35 35 35 35 34 34 34 34 34 35 35 36 37
40 40 40 40 40 39 39 38 37 37 37 37 37 38 39 39 40 41 41 41 42 41 41 41 40 39 38 37 35 34 32 31 32 33 34 35 35 34 33 32 31 30 29 28 28 28 28 29 30 30 31 32 32 33 34 33 33 33 33 32 31 31 31 31 31 32 33 34 34 35 35 36 36 37 37 37 37 37 37 37 37 37 37 37 38
39 39 39 39 39 38 37 37 36 36 36 37 38 38 39 40 41 41 42 42 42 42 41 40 39 38 36 35 34 33 32 32 33 34 35 36 36 35 34 33 31 30 30 29 29 30 30 31 31 32 33 34 35 35 35 34 33 32 32 32 32 32 32 32 33 33 34 34 35 35 36 37 38 38 39 39 39 39 39 39 40 40 40 40 40
39 39 39 38 38 37 37 36 36 37 37 38 39 39 40 41 42 42 42 42 42 41 40 39 38 36 35 34 33 33 34 34 35 36 36 36 36 36 35 34 32 31 31 31 31 31 32 32 33 34 34 35 35 35 35 34 33 33 33 34 34 34 34 35 35 36 37 37 37 37 38 38 39 39 40 40 41 41 41 41 42 42 42 43 43
39 39 39 39 38 37 37 37 37 38 38 39 40 41 41 42 42 43 43 42 42 41 40 38 37 35 34 34 34 35 36 36 37 37 37 37 37 36 36 35 34 33 33 33 33 33 33 34 34 34 34 34 34 34 35 34 34 34 35 36 36 37 37 38 39 39 40 41 41 41 41 41 41 42 42 43 43 44 44 44 44 45 45 45 46
39 39 39 39 38 38 38 38 38 39 40 40 41 42 42 43 43 43 43 42 41 40 39 38 36 35 35 35 36 36 37 37 37 37 37 37 37 36 36 35 35 34 34 34 34 34 34 34 33 33 33 33 33 35 36 36 36 36 36 37 37 38 39 40 41 41 42 43 43 44 44 44 44 45 45 46 46 47 47 48 48 49 49 49 49
40 40 40 40 39 39 39 39 40 40 41 42 42 43 43 44 44 43 43 42 41 40 39 37 36 36 36 36 37 37 38 38 38 38 38 37 37 36 36 35 35 35 35 35 34 34 34 33 33 33 34 34 35 36 37 38 38 37 37 38 39 39 40 41 42 43 44 45 46 47 48 48 49 50 50 50 50 51 51 52 52 52 53 54 53
40 40 40 40 40 40 40 41 41 42 42 43 44 44 44 44 44 43 43 42 41 40 38 37 37 36 36 37 37 38 38 38 38 38 38 37 37 36 36 35 35 35 35 34 34 34 34 34 34 35 36 37 37 37 38 38 38 37 38 39 40 41 42 43 44 46 47 48 50 51 52 53 54 55 55 55 55 55 55 55 55 56 56 56 56
41 41 41 41 41 41 41 42 42 43 44 44 44 44 44 45 44 44 43 42 41 40 38 37 36 36 37 37 38 38 38 38 38 38 38 37 36 36 35 35 35 35 35 35 34 34 35 35 36 37 38 38 38 38 38 38 38 38 39 40 42 43 45 46 48 49 51 52 54 56 57 58 58 59 59 58 58 57 56 56 56 56 56 56 57
42 42 42 42 42 42 42 43 43 44 44 45 45 45 45 45 45 44 43 42 40 39 38 37 36 37 37 37 38 38 39 39 38 38 37 37 36 36 35 35 35 35 35 35 35 35 36 37 37 38 39 39 40 39 39 39 39 39 40 42 43 45 47 48 50 52 54 55 57 59 60 60 61 60 59 57 56 54 53 52 52 52 52 52 52
Wind_Direction
225 221 229 235 229 224 220 226 240 244 258 275 279 280 282 289 296 292 288 292 295 294 292 291 291 292 294 296 296 294 294 294 294 294 296 296 297 298 301 304 303 303 302 298 297 298 298 294 291 289 287 284 283 283 284 284 281 280 280 281 281 281 282 282 279 279 280 280 277 276 277 280 283 286 286 286 284 282 280 279 278 278 275 273 271
220 216 218 221 222 217 212 225 239 242 256 266 269 278 283 292 300 295 292 296 297 295 294 295 296 296 296 296 295 295 296 297 296 296 298 299 298 297 301 304 302 301 300 296 294 296 295 292 290 289 286 283 283 285 286 285 283 282 281 281 281 281 282 282 280 278 278 280 279 278 278 280 281 282 282 283 283 282 281 279 277 275 273 275 275
213 211 207 212 224 212 203 221 246 254 263 267 273 285 289 293 297 293 291 295 295 295 299 300 300 299 298 297 297 297 297 296 294 293 296 297 294 294 297 300 300 299 298 295 292 293 293 293 293 292 286 281 281 284 284 283 283 283 281 280 281 282 283 283 282 280 278 279 282 281 280 280 280 281 281 281 281 281 280 279 277 275 275 275 274
209 220 223 231 240 226 222 244 260 266 274 280 285 292 294 298 299 295 294 295 295 297 300 301 301 301 299 297 297 298 298 298 297 296 297 295 292 292 295 297 296 295 295 294 291 290 293 294 296 296 290 281 280 287 289 287 286 285 283 283 282 281 281 281 281 281 279 279 279 279 279 279 279 280 280 278 277 276 276 275 274 275 274 271 270
206 222 232 240 247 249 257 264 267 275 284 288 291 293 293 298 300 296 294 296 297 299 300 301 300 298 295 295 297 299 297 296 297 299 299 297 295 295 296 296 294 293 295 294 290 289 291 292 294 296 293 283 280 287 291 289 288 287 286 286 284 281 282 282 281 281 280 279 277 275 274 275 276 277 276 274 273 274 274 272 270 270 268 267 268
214 231 240 249 258 265 272 277 282 287 288 290 292 293 295 298 298 296 295 296 297 297 299 300 299 294 293 295 297 297 296 295 297 299 298 297 297 296 296 297 296 296 295 294 293 292 291 291 293 295 293 286 284 287 288 286 286 286 285 286 284 284 284 283 282 282 281 279 277 274 271 271 274 276 276 274 272 272 272 269 266 265 265 266 267
248 254 257 266 272 275 280 284 286 286 287 290 291 293 296 296 294 294 295 295 296 297 297 297 295 293 293 295 295 297 298 298 298 299 298 297 297 296 296 297 298 297 295 294 295 294 292 292 293 293 290 286 286 288 285 284 284 284 284 284 283 283 284 284 283 284 283 282 281 279 276 276 277 277 277 275 271 268 266 264 262 261 263 265 266
274 263 262 271 275 277 279 280 282 284 287 289 289 291 294 294 293 294 295 295 296 297 296 294 293 294 295 295 296 299 300 299 299 299 298 297 296 296 296 296 295 294 293 293 293 292 292 292 291 290 289 287 287 287 285 284 284 283 282 282 281 282 282 282 283 283 283 284 283 282 280 279 279 277 276 274 271 267 264 262 262 262 263 265 267
273 271 274 279 280 281 281 282 283 286 288 289 290 291 292 293 294 295 295 295 294 293 292 293 294 296 297 296 298 299 299 299 299 298 296 295 294 294 293 293 292 291 291 292 291 291 291 291 290 290 290 288 287 286 285 284 282 281 280 279 279 280 280 280 280 280 281 283 283 283 281 280 279 278 278 276 273 270 267 266 265 265 266 268 269
272 274 276 279 280 282 284 286 287 288 289 290 290 290 291 291 292 292 292 291 290 290 291 293 294 295 295 295 297 298 298 297 297 296 295 294 293 292 291 290 290 290 290 290 290 290 290 290 289 289 289 287 286 284 282 281 279 278 277 276 276 275 276 277 278 278 279 280 281 282 281 280 280 280 280 279 275 272 270 268 267 268 270 272 273
272 274 276 279 282 284 285 287 288 288 289 289 289 289 289 290 290 289 288 288 288 288 290 291 292 293 293 294 296 296 296 296 295 293 292 292 291 290 290 289 289 290 290 290 290 290 290 290 289 288 287 285 284 283 281 280 278 277 275 274 274 273 273 274 275 276 277 277 278 279 279 279 280 280 280 278 275 273 272 270 270 271 272 274 275
274 276 279 282 284 285 286 287 287 288 288 288 288 287 287 287 287 286 285 285 286 287 288 289 291 292 293 294 295 295 294 293 292 291 290 290 289 289 289 290 290 290 291 291 291 291 290 290 289 287 285 284 283 282 281 280 278 277 275 274 273 273 274 274 274 274 275 275 276 276 276 277 277 277 276 275 275 274 273 273 272 272 272 273 274
280 281 283 284 285 286 287 287 287 286 286 286 286 285 285 284 284 283 283 285 286 288 289 291 292 293 294 294 294 294 292 291 290 290 290 290 290 289 289 290 290 290 290 290 291 291 290 290 289 288 286 284 283 283 282 281 280 278 277 275 275 275 274 274 274 275 275 275 275 275 275 275 274 274 273 273 272 272 272 272 272 272 272 272 273
285 286 287 288 288 288 287 286 285 284 284 284 284 284 283 282 281 282 283 285 287 289 291 293 294 295 294 294 294 293 292 291 291 290 290 289 289 288 288 288 289 289 289 289 289 289 288 288 287 287 286 284 283 283 282 281 280 280 279 278 277 276 276 275 275 276 276 276 275 274 274 273 272 272 271 271 270 270 270 270 271 271 271 272 273
288 289 290 289 288 286 284 283 282 282 282 282 281 281 280 280 282 284 286 288 290 292 293 294 295 295 294 293 292 291 290 290 289 288 288 287 287 288 288 288 288 288 287 287 287 286 286 285 285 285 284 284 283 282 282 281 280 280 279 278 277 277 276 276 276 276 277 277 277 276 275 274 273 272 271 270 269 268 268 268 269 269 270 271 272
288 288 287 286 284 283 281 280 280 279 279 279 279 279 280 283 285 288 290 291 292 293 293 293 292 292 291 290 289 289 288 288 287 287 287 287 287 288 288 288 288 287 287 287 287 286 286 285 285 285 284 283 284 284 283 283 282 281 279 278 277 276 275 276 276 277 277 277 276 276 276 276 275 274 273 271 270 269 268 268 269 269 270 271 271
286 286 285 283 281 280 279 278 278 278 278 279 280 282 284 285 287 288 289 290 290 290 290 290 289 289 288 288 288 287 287 287 287 287 287 288 288 288 288 287 287 287 288 288 288 287 287 286 285 285 285 285 285 285 284 283 283 282 281 279 278 277 276 276 276 276 276 275 274 274 274 274 274 274 273 273 272 271 270 270 270 270 270 270 270
285 284 283 281 279 278 277 277 278 278 279 280 281 282 283 283 284 285 287 288 288 288 288 288 288 287 287 287 287 287 287 287 287 287 288 288 288 287 287 288 288 289 289 288 288 288 288 287 287 286 286 286 286 284 283 283 282 281 281 280 279 278 277 276 275 275 275 275 274 274 273 273 273 273 273 272 272 272 271 270 270 270 270 269 270
285 283 282 280 279 278 277 277 277 277 278 278 279 280 282 283 285 286 287 288 287 287 287 287 287 286 287 287 288 288 288 288 288 288 288 288 288 288 289 290 291 291 290 289 289 288 287 286 286 286 286 285 284 283 282 282 281 281 280 279 279 278 278 277 276 275 275 275 275 274 274 274 273 272 272 272 271 271 270 270 270 270 270 270 270
283 281 280 278 277 276 275 275 275 276 278 279 281 282 284 285 286 287 287 287 287 287 287 287 287 288 289 289 288 288 288 288 289 289 289 289 290 291 292 292 292 290 289 289 288 287 286 285 284 284 284 283 282 282 281 281 281 280 280 280 279 279 278 278 277 276 276 276 276 276 275 275 275 274 274 273 272 271 271 270 270 270 270 271 271
280 278 277 276 275 275 275 275 277 278 280 281 282 284 285 286 286 287 288 289 289 289 289 289 290 290 290 290 290 289 289 290 290 290 291 291 292 292 291 291 290 289 288 288 287 286 286 285 284 284 283 282 282 282 282 282 282 282 281 281 280 280 279 279 278 278 277 276 276 276 276 275 275 275 274 273 273 272 272 272 271 271 271 271 272
279 277 276 276 275 275 276 278 279 281 282 284 285 286 287 288 288 289 290 291 291 291 291 292 292 292 292 292 292 292 292 292 292 292 292 292 291 291 290 289 289 289 288 288 287 287 287 287 286 286 285 285 285 284 284 283 283 282 282 281 281 280 279 279 278 278 277 277 277 276 276 276 276 275 274 274 273 273 273 273 273 273 274 274 274
279 277 276 276 277 278 280 282 283 284 286 287 288 288 289 290 291 293 293 293 294 294 295 295 294 294 294 295 294 293 294 295 295 293 293 292 292 291 290 289 289 289 289 289 289 289 289 289 289 288 287 287 287 286 286 285 284 284 283 283 282 281 280 280 279 279 279 278 278 278 277 277 277 277 276 276 275 274 273 273 273 274 275 275 276
277 278 279 281 282 283 285 285 286 287 288 290 291 292 294 296 297 298 297 298 298 297 296 296 296 296 296 296 295 294 294 295 294 293 293 293 293 292 292 292 292 292 293 292 292 292 292 291 291 290 289 289 288 288 287 287 286 286 285 284 284 283 282 282 281 280 280 279 279 279 279 279 279 278 278 278 278 278 277 276 276 276 277 277 278
283 285 286 286 286 287 288 289 290 292 295 297 298 299 300 301 300 299 299 298 298 297 296 296 296 296 295 295 295 295 295 295 294 295 296 296 296 296 296 296 296 296 295 295 295 294 293 293 292 291 291 290 289 288 287 286 286 286 285 284 284 284 283 282 281 281 281 280 279 278 278 279 279 279 279 279 278 278 279 279 279 278 279 280 280
291 291 290 290 290 292 295 298 301 303 304 304 303 303 302 301 300 299 299 298 298 297 296 296 296 296 296 296 297 298 298 298 298 299 299 299 300 300 299 299 298 297 296 296 295 294 294 293 293 292 291 290 289 288 287 286 286 285 284 284 283 282 282 282 281 281 281 280 279 279 280 280 280 280 279 278 277 277 279 280 280 279 280 280 280
296 296 297 299 301 303 305 307 308 308 306 304 303 302 300 299 299 299 299 298 298 297 298 298 299 299 299 299 300 300 300 301 301 301 301 301 301 300 299 299 298 297 296 296 295 295 294 293 292 291 290 288 287 287 286 285 284 284 283 283 283 282 282 281 281 281 280 279 279 279 279 280 279 277 276 275 276 277 278 279 280 279 280 279 278
305 306 307 309 310 310 310 309 307 305 302 300 299 298 297 296 297 297 296 297 298 299 300 301 301 301 301 301 301 301 302 302 302 302 302 302 301 300 299 299 298 297 296 295 294 294 293 292 290 289 288 288 287 286 285 284 283 282 282 282 282 282 281 281 281 280 279 278 277 276 274 273 272 273 275 276 277 277 277 277 276 274 275 277 276
313 313 312 311 310 307 306 304 302 300 299 298 297 297 297 297 298 299 299 300 301 302 303 304 304 304 303 303 303 303 304 304 304 304 303 302 301 300 300 299 298 297 295 294 293 292 290 289 288 287 287 286 285 285 284 283 283 282 282 281 281 281 280 280 280 280 281 280 277 274 271 268 267 268 271 273 274 273 271 273 273 272 271 272 274
313 311 308 306 304 302 301 301 300 300 300 300 301 301 301 302 303 303 303 304 304 304 305 306 306 305 304 304 304 305 304 304 304 304 303 302 301 300 299 298 297 296 295 294 293 291 290 289 289 288 287 287 286 285 285 284 284 284 284 283 283 282 280 279 279 280 282 282 279 274 270 267 264 261 260 262 264 262 260 263 266 265 263 265 271
309 307 305 304 304 304 304 304 304 304 305 305 305 305 304 304 304 304 304 304 304 304 305 305 304 304 304 305 305 305 305 305 304 304 303 302 301 301 300 299 298 297 295 295 294 294 294 293 293 293 293 292 291 290 289 289 289 288 286 285 284 283 282 281 280 278 275 275 275 275 273 270 266 261 257 255 255 254 253 256 259 258 259 265 272
308 308 308 308 308 308 308 307 307 306 306 305 305 305 304 304 304 304 304 304 304 305 305 305 304 305 305 305 306 306 306 305 305 304 303 303 302 301 301 300 299 299 298 298 299 299 299 299 299 298 297 295 293 293 292 292 291 290 288 287 286 286 285 283 282 279 273 272 275 278 279 278 275 271 265 260 257 255 254 255 256 256 257 260 262
312 312 312 311 310 309 308 307 306 305 305 304 304 304 304 305 305 305 305 305 306 307 307 306 307 307 307 307 307 307 307 306 306 305 305 304 304 304 303 303 303 304 304 305 305 305 305 305 304 303 300 298 296 294 293 293 292 292 291 289 289 290 289 288 287 284 280 279 280 282 283 283 282 281 278 274 269 265 260 256 253 252 253 253 250
313 311 310 309 308 307 307 306 306 306 306 305 305 305 305 306 307 308 308 308 309 309 309 308 308 309 309 309 309 308 308 307 307 308 308 308 308 308 309 309 309 310 310 310 310 310 310 310 309 308 307 305 303 301 300 298 296 295 294 293 293 293 293 293 291 289 288 288 287 287 287 287 287 287 286 283 280 274 268 262 255 251 250 250 248
310 309 308 308 308 309 308 308 308 307 307 307 307 307 308 309 310 310 311 311 311 311 311 310 310 310 310 310 310 309 310 310 311 312 313 313 313 313 314 314 315 315 315 314 314 313 313 312 311 310 310 309 308 307 305 303 302 299 298 297 296 295 294 294 293 291 290 290 289 289 290 291 292 292 292 290 286 280 274 269 263 256 251 249 250
311 311 312 312 312 311 311 310 309 309 309 309 309 310 311 311 312 312 312 312 312 312 312 312 312 311 311 311 311 312 313 315 316 317 318 318 318 318 318 318 317 317 315 315 314 314 314 313 312 311 311 310 310 309 307 306 305 303 302 300 298 297 295 294 293 292 291 291 290 290 291 291 292 293 294 294 294 290 283 277 274 268 259 252 251
316 316 316 315 315 314 314 313 312 312 312 312 312 312 313 313 314 314 314 314 314 313 313 313 313 313 313 313 314 316 318 319 321 321 321 321 320 319 318 317 316 315 314 313 313 314 314 315 314 314 314 314 313 313 312 311 310 308 307 305 304 302 300 299 297 296 294 293 292 291 291 291 292 292 294 295 296 296 295 289 285 281 273 262 256
319 319 319 319 318 318 317 316 315 314 314 314 314 315 315 315 315 315 315 315 314 314 314 314 314 314 315 316 318 320 321 323 323 322 322 321 320 320 319 319 318 316 314 314 314 315 316 317 317 317 317 317 317 316 315 314 313 312 310 309 307 306 305 303 302 300 298 297 295 294 292 291 291 291 291 292 292 292 292 291 288 284 280 273 266
322 322 321 321 320 319 318 317 317 316 316 316 316 316 316 316 316 316 315 315 315 315 315 315 315 316 318 319 321 323 323 324 323 322 322 322 322 322 322 322 321 320 319 318 318 319 320 320 320 320 319 319 319 318 318 317 316 314 313 311 309 307 306 304 302 301 300 298 297 296 295 293 293 292 291 290 289 287 285 284 284 282 279 276 273
324 323 322 322 321 320 320 319 318 317 317 317 317 317 317 317 316 316 316 316 316 316 316 317 317 319 320 322 323 324 324 323 323 322 322 322 323 323 323 323 322 321 320 320 319 319 319 319 319 319 319 318 319 319 319 319 318 317 315 314 312 310 309 307 305 304 302 301 300 299 298 296 295 294 293 291 290 288 285 283 282 282 281 279 277
323 323 323 322 322 321 320 319 319 318 318 318 318 318 318 318 318 318 318 318 318 318 318 319 319 321 323 324 324 324 324 323 323 322 322 322 322 323 323 322 321 319 318 317 316 315 315 314 314 314 314 315 316 316 317 317 317 316 315 314 313 311 310 309 308 306 305 304 303 302 301 300 299 297 296 294 292 290 287 285 282 280 280 279 277
325 325 324 324 323 323 322 321 320 320 320 320 320 320 320 319 319 319 319 319 320 320 320 320 322 323 324 325 325 324 324 323 322 321 321 321 322 323 322 321 319 317 316 314 313 312 311 310 310 311 311 312 313 314 315 316 316 315 314 313 312 311 310 309 309 308 307 306 306 305 304 303 302 300 299 297 295 293 290 288 285 282 279 277 276
327 328 327 327 326 326 325 324 323 323 323 323 322 322 321 321 321 321 321 321 321 321 322 322 324 324 325 325 324 323 322 321 320 319 320 321 322 322 322 321 318 316 315 313 312 311 310 310 310 311 312 313 314 314 315 316 316 315 314 314 313 312 312 311 310 309 308 307 307 306 305 304 303 302 300 298 297 295 293 291 289 286 282 279 277
331 331 331 330 329 328 327 326 326 325 325 324 324 323 323 323 323 323 323 323 322 323 323 324 324 325 324 323 322 321 320 318 318 318 319 320 322 322 322 320 318 316 315 314 313 313 312 312 313 313 314 315 315 315 316 317 317 317 316 316 315 315 314 313 311 310 309 308 307 305 305 304 302 301 300 298 297 295 293 292 290 288 286 283 280
334 333 333 332 331 330 329 328 328 327 326 326 325 325 325 325 325 324 324 323 323 323 323 324 324 324 323 322 320 319 318 317 317 318 319 320 321 322 321 320 319 317 316 315 315 314 314 314 314 315 315 316 316 317 317 318 319 319 318 318 318 317 316 315 314 313 311 310 309 308 306 305 304 302 301 299 298 296 294 292 290 288 287 285 283
335 334 333 332 331 330 329 329 329 328 327 326 326 326 326 326 325 325 324 323 323 323 323 323 323 322 321 320 319 318 318 317 317 318 319 320 320 320 320 319 319 318 318 317 316 316 316 316 316 316 317 318 319 319 319 319 320 320 319 318 318 318 317 317 316 316 314 313 312 311 310 308 306 305 303 301 299 297 295 293 291 289 287 285 284
336 334 333 332 331 330 330 330 329 329 328 327 327 327 327 326 325 325 324 323 322 322 322 322 321 321 320 319 318 318 318 317 317 318 319 319 319 319 319 319 319 318 318 318 318 318 317 317 318 318 319 320 321 320 319 320 320 320 319 319 318 318 318 318 317 317 316 315 314 313 312 311 309 306 304 302 300 297 295 293 291 289 287 285 284
336 334 333 332 331 331 330 330 329 329 328 328 327 327 327 326 325 324 323 322 321 321 320 320 320 319 319 319 319 318 318 318 318 318 318 318 318 318 318 318 318 318 318 318 318 318 318 319 319 320 320 321 321 320 319 319 319 319 319 319 319 319 319 319 319 319 318 318 317 316 315 313 311 309 307 304 302 299 296 294 291 289 287 285 283
335 334 333 332 331 331 330 330 329 328 328 328 327 327 326 325 324 323 322 321 320 319 318 318 318 318 318 318 319 318 318 318 318 317 317 317 317 317 317 318 318 318 318 318 318 318 319 319 320 320 320 320 320 320 318 318 318 320 320 320 320 320 321 321 321 321 321 320 319 318 317 315 314 312 309 307 304 301 298 295 292 289 286 284 282
334 333 332 331 331 330 330 329 328 328 328 327 327 327 326 325 324 322 321 319 318 317 317 316 316 316 317 318 319 319 318 318 317 316 316 316 316 316 317 317 318 318 318 318 317 318 318 319 319 319 320 319 319 319 318 318 318 319 320 320 320 321 322 322 323 323 322 322 321 319 318 317 315 313 311 309 306 304 301 297 294 291 287 284 282
334 333 332 331 330 329 328 328 328 328 327 327 327 326 325 324 323 321 320 318 317 316 315 314 314 315 317 318 319 319 318 317 316 315 315 315 315 316 316 317 317 317 316 316 316 316 316 317 318 318 319 319 318 318 318 318 318 319 319 320 321 322 322 323 323 323 323 322 321 320 319 318 317 316 314 312 310 308 305 302 299 295 292 288 285
Height
5795 5796 5796 5796 5797 5798 5798 5798 5799 5800 5800 5799 5800 5800 5800 5799 5798 5797 5797 5797 5797 5796 5796 5796 5795 5794 5794 5793 5793 5793 5792 5792 5791 5791 5790 5789 5789 5788 5787 5786 5785 5784 5783 5782 5781 5780 5780 5779 5778 5776 5776 5775 5773 5772 5771 5770 5769 5768 5766 5766 5764 5763 5763 5762 5762 5760 5759 5758 5757 5755 5754 5753 5753 5752 5751 5751 5751 5751 5751 5750 5749 5749 5748 5747 5746
5795 5795 5795 5796 5796 5797 5797 5798 5798 5799 5799 5799 5799 5799 5799 5798 5797 5796 5795 5794 5794 5794 5794 5793 5792 5791 5791 5791 5791 5791 5790 5790 5789 5788 5787 5787 5786 5785 5784 5782 5781 5780 5779 5779 5778 5777 5777 5776 5775 5773 5772 5772 5770 5768 5767 5766 5765 5764 5763 5762 5761 5760 5759 5758 5757 5757 5755 5753 5753 5752 5751 5750 5749 5748 5747 5746 5746 5746 5746 5746 5745 5744 5744 5743 5742
5794 5794 5795 5795 5794 5795 5797 5798 5797 5797 5797 5798 5798 5798 5797 5796 5796 5795 5794 5793 5793 5792 5792 5791 5790 5789 5789 5789 5789 5788 5788 5787 5786 5786 5785 5784 5783 5782 5781 5779 5778 5777 5776 5775 5774 5774 5773 5772 5771 5770 5769 5768 5766 5765 5764 5763 5762 5760 5759 5758 5757 5756 5755 5753 5752 5752 5751 5750 5749 5748 5747 5746 5745 5744 5743 5743 5742 5742 5742 5741 5740 5740 5740 5739 5739
5793 5793 5793 5793 5793 5794 5795 5796 5796 5795 5795 5795 5796 5796 5795 5795 5794 5793 5792 5791 5790 5791 5790 5789 5788 5787 5786 5786 5786 5785 5785 5784 5783 5782 5782 5781 5779 5778 5777 5776 5775 5774 5773 5772 5771 5770 5769 5767 5767 5766 5765 5764 5762 5761 5760 5759 5758 5756 5755 5754 5753 5752 5751 5749 5748 5747 5747 5746 5745 5744 5743 5742 5741 5740 5740 5739 5738 5738 5738 5737 5737 5736 5736 5735 5735
5792 5792 5793 5793 5793 5793 5794 5794 5795 5795 5794 5793 5793 5793 5794 5794 5793 5791 5790 5789 5788 5788 5788 5787 5786 5784 5783 5783 5782 5782 5781 5780 5779 5779 5778 5776 5775 5774 5773 5772 5771 5770 5769 5768 5767 5766 5765 5763 5762 5761 5760 5760 5759 5757 5756 5755 5754 5752 5751 5750 5748 5747 5746 5746 5744 5743 5742 5742 5741 5741 5740 5739 5737 5736 5736 5735 5735 5734 5734 5734 5733 5733 5732 5732 5731
5792 5792 5792 5792 5792 5792 5793 5794 5794 5794 5793 5792 5790 5790 5790 5791 5790 5789 5788 5787 5786 5785 5785 5784 5783 5781 5780 5780 5779 5778 5778 5776 5775 5775 5773 5772 5771 5770 5769 5768 5767 5766 5765 5763 5762 5762 5761 5759 5758 5757 5756 5756 5755 5754 5752 5751 5750 5748 5747 5745 5744 5742 5742 5741 5740 5739 5738 5737 5737 5736 5736 5734 5733 5732 5731 5731 5731 5730 5730 5730 5729 5729 5729 5728 5728
5791 5792 5792 5791 5790 5791 5792 5793 5793 5792 5792 5791 5789 5788 5788 5788 5787 5786 5785 5784 5783 5782 5782 5781 5780 5779 5778 5777 5776 5775 5774 5773 5771 5770 5769 5768 5767 5766 5765 5764 5763 5762 5761 5759 5758 5757 5756 5755 5754 5753 5752 5751 5750 5749 5748 5747 5746 5744 5743 5741 5740 5739 5738 5737 5736 5735 5733 5732 5732 5732 5731 5730 5729 5729 5728 5728 5728 5727 5726 5726 5726 5726 5726 5725 5725
5791 5791 5791 5790 5790 5791 5791 5791 5791 5790 5790 5789 5788 5786 5786 5785 5784 5783 5782 5781 5780 5779 5779 5778 5778 5777 5775 5774 5772 5771 5770 5769 5768 5767 5766 5764 5763 5762 5761 5760 5759 5758 5757 5756 5754 5753 5752 5751 5750 5748 5747 5747 5746 5745 5743 5742 5741 5740 5739 5738 5736 5735 5734 5733 5732 5731 5729 5728 5728 5727 5727 5726 5725 5725 5725 5725 5725 5724 5723 5723 5723 5722 5722 5722 5721
5790 5790 5789 5789 5789 5789 5789 5789 5788 5787 5787 5786 5785 5784 5783 5782 5781 5780 5779 5778 5778 5777 5776 5775 5774 5774 5772 5770 5769 5768 5766 5765 5764 5763 5762 5761 5760 5759 5758 5756 5755 5754 5753 5752 5750 5749 5748 5747 5745 5744 5743 5742 5741 5740 5739 5738 5737 5736 5735 5734 5732 5731 5730 5729 5728 5727 5726 5725 5724 5723 5723 5723 5722 5722 5722 5722 5721 5720 5720 5720 5719 5718 5718 5717 5717
5789 5788 5787 5787 5787 5786 5786 5785 5785 5784 5784 5783 5782 5782 5781 5780 5779 5778 5777 5776 5774 5774 5773 5772 5771 5770 5768 5767 5765 5764 5763 5762 5761 5760 5758 5757 5756 5755 5754 5753 5751 5750 5749 5748 5746 5745 5744 5742 5741 5740 5739 5738 5737 5736 5735 5734 5733 5732 5730 5729 5728 5727 5726 5725 5724 5723 5722 5721 5720 5719 5719 5718 5718 5718 5718 5717 5717 5716 5715 5715 5715 5714 5714 5713 5712
5787 5786 5785 5785 5785 5784 5783 5783 5782 5782 5781 5781 5780 5779 5778 5777 5776 5775 5774 5773 5771 5770 5769 5768 5767 5766 5764 5763 5762 5761 5759 5758 5757 5756 5755 5753 5752 5751 5750 5749 5747 5746 5745 5743 5742 5741 5739 5738 5737 5735 5734 5733 5732 5731 5730 5729 5728 5727 5726 5725 5724 5723 5722 5721 5719 5718 5717 5716 5715 5714 5714 5713 5713 5713 5713 5712 5712 5711 5710 5710 5710 5710 5709 5709 5708
5785 5784 5783 5783 5782 5782 5781 5781 5780 5779 5778 5778 5777 5776 5775 5774 5773 5772 5770 5769 5768 5767 5765 5764 5763 5762 5761 5759 5758 5757 5755 5754 5753 5751 5750 5749 5748 5747 5746 5744 5743 5742 5740 5739 5737 5736 5735 5733 5732 5731 5730 5729 5728 5727 5726 5725 5724 5723 5722 5721 5719 5718 5717 5716 5715 5713 5712 5711 5711 5709 5709 5708 5708 5707 5707 5707 5706 5705 5705 5705 5705 5705 5704 5704 5703
5782 5782 5781 5781 5780 5779 5778 5778 5777 5776 5776 5775 5774 5773 5772 5771 5770 5768 5767 5766 5764 5763 5762 5761 5760 5758 5757 5755 5754 5753 5751 5750 5749 5748 5747 5745 5744 5743 5741 5740 5738 5737 5735 5734 5732 5731 5730 5729 5727 5727 5726 5725 5723 5722 5721 5720 5719 5718 5717 5716 5715 5714 5713 5711 5710 5709 5707 5707 5705 5704 5703 5703 5702 5701 5701 5701 5700 5699 5699 5699 5699 5698 5698 5698 5697
5779 5779 5778 5777 5777 5776 5775 5775 5774 5773 5773 5772 5771 5770 5769 5768 5766 5765 5764 5763 5761 5760 5759 5757 5756 5755 5753 5751 5750 5749 5748 5746 5745 5744 5743 5741 5740 5739 5737 5735 5734 5732 5730 5729 5728 5726 5725 5724 5722 5721 5720 5719 5718 5717 5716 5715 5714 5712 5711 5711 5710 5708 5707 5706 5705 5704 5702 5701 5700 5699 5698 5697 5696 5695 5695 5695 5694 5693 5693 5692 5692 5691 5691 5691 5691
5777 5776 5775 5775 5774 5773 5773 5772 5771 5770 5769 5769 5768 5767 5766 5765 5764 5763 5761 5760 5759 5757 5755 5754 5752 5751 5749 5748 5746 5745 5744 5743 5741 5740 5738 5737 5735 5734 5732 5731 5729 5727 5726 5724 5723 5722 5720 5719 5717 5716 5715 5713 5712 5711 5710 5709 5708 5707 5705 5704 5703 5702 5701 5699 5698 5698 5697 5696 5695 5693 5692 5691 5690 5689 5688 5687 5687 5686 5685 5685 5684 5684 5684 5683 5683
5774 5773 5773 5772 5771 5770 5769 5769 5768 5767 5766 5765 5764 5763 5763 5762 5761 5760 5758 5757 5755 5753 5752 5750 5748 5747 5745 5744 5743 5741 5740 5738 5737 5735 5734 5732 5730 5729 5727 5725 5724 5722 5721 5719 5718 5716 5715 5713 5712 5710 5709 5707 5706 5705 5704 5702 5701 5700 5699 5698 5696 5695 5694 5692 5691 5691 5690 5689 5687 5686 5685 5684 5683 5682 5681 5680 5679 5678 5678 5677 5676 5676 5676 5675 5675
5771 5770 5769 5769 5768 5767 5766 5765 5764 5764 5763 5762 5761 5760 5759 5758 5757 5756 5754 5752 5751 5749 5747 5746 5744 5743 5741 5740 5739 5737 5735 5734 5732 5731 5729 5727 5725 5723 5721 5720 5718 5717 5716 5714 5713 5711 5709 5707 5706 5705 5703 5701 5700 5699 5697 5695 5694 5692 5691 5690 5688 5687 5686 5686 5684 5683 5681 5680 5679 5678 5678 5676 5675 5674 5673 5672 5671 5670 5670 5668 5667 5667 5667 5667 5666
5768 5767 5766 5765 5764 5763 5763 5762 5761 5760 5760 5759 5758 5756 5755 5754 5752 5751 5749 5748 5746 5745 5743 5742 5740 5739 5737 5735 5734 5732 5731 5729 5727 5726 5724 5722 5720 5718 5716 5714 5713 5712 5711 5709 5707 5706 5703 5701 5699 5698 5697 5696 5694 5691 5689 5687 5686 5684 5683 5682 5680 5679 5678 5678 5677 5675 5673 5672 5671 5670 5669 5668 5667 5666 5665 5664 5663 5662 5661 5660 5659 5659 5658 5658 5657
5765 5764 5763 5762 5761 5760 5759 5758 5757 5756 5755 5754 5753 5752 5750 5749 5748 5747 5745 5744 5742 5741 5739 5738 5736 5734 5733 5731 5729 5727 5726 5724 5722 5720 5718 5716 5714 5712 5710 5709 5708 5706 5704 5702 5700 5699 5697 5695 5692 5691 5690 5688 5685 5683 5681 5679 5678 5676 5675 5673 5672 5670 5669 5669 5668 5667 5666 5664 5663 5662 5661 5659 5659 5658 5657 5655 5654 5653 5652 5651 5650 5650 5649 5648 5648
5761 5760 5759 5758 5757 5756 5755 5754 5753 5752 5751 5750 5749 5748 5746 5745 5744 5742 5741 5739 5738 5736 5735 5733 5731 5729 5727 5725 5723 5722 5720 5718 5716 5713 5711 5709 5708 5706 5705 5703 5701 5699 5697 5695 5693 5691 5689 5687 5686 5684 5682 5680 5677 5675 5673 5671 5669 5667 5666 5664 5663 5662 5661 5660 5658 5658 5657 5655 5654 5653 5652 5650 5649 5648 5647 5646 5645 5644 5643 5643 5641 5641 5640 5639 5638
5757 5756 5755 5754 5753 5752 5751 5750 5749 5748 5747 5746 5745 5744 5742 5741 5739 5738 5736 5735 5733 5732 5730 5728 5726 5724 5721 5719 5717 5715 5714 5713 5710 5707 5705 5704 5702 5701 5699 5696 5694 5692 5690 5688 5686 5683 5680 5678 5677 5675 5673 5670 5668 5667 5665 5662 5660 5658 5656 5655 5654 5652 5651 5650 5648 5647 5646 5645 5644 5643 5642 5641 5640 5639 5638 5636 5635 5634 5634 5634 5633 5631 5631 5630 5629
5753 5752 5751 5750 5749 5748 5747 5746 5745 5744 5743 5742 5741 5739 5738 5736 5735 5733 5732 5730 5728 5726 5724 5722 5720 5718 5715 5713 5711 5708 5707 5707 5704 5701 5699 5697 5696 5694 5692 5688 5686 5684 5682 5679 5677 5674 5672 5669 5667 5665 5663 5660 5658 5657 5655 5653 5651 5649 5646 5645 5643 5642 5640 5639 5638 5636 5636 5635 5634 5633 5632 5630 5630 5629 5628 5627 5626 5625 5625 5625 5624 5623 5622 5621 5621
5749 5748 5747 5747 5746 5745 5744 5743 5742 5741 5740 5738 5736 5735 5733 5731 5730 5728 5726 5725 5723 5721 5719 5716 5714 5711 5709 5707 5704 5701 5701 5700 5697 5693 5691 5689 5687 5686 5683 5680 5678 5676 5673 5671 5668 5665 5662 5660 5657 5655 5653 5651 5649 5647 5645 5643 5641 5639 5636 5634 5632 5631 5630 5629 5627 5626 5625 5624 5623 5623 5622 5620 5619 5619 5618 5617 5616 5616 5616 5617 5617 5616 5614 5613 5612
5745 5745 5744 5744 5743 5742 5741 5740 5738 5737 5735 5733 5731 5730 5728 5726 5725 5723 5721 5719 5718 5716 5713 5710 5708 5706 5703 5701 5697 5693 5694 5694 5690 5685 5683 5680 5677 5676 5674 5671 5669 5666 5663 5661 5658 5655 5653 5651 5648 5646 5643 5641 5639 5637 5635 5633 5631 5629 5626 5624 5622 5621 5620 5619 5617 5616 5615 5615 5614 5613 5612 5611 5610 5609 5608 5607 5605 5605 5605 5607 5608 5608 5606 5604 5604
5743 5742 5742 5741 5740 5739 5737 5736 5734 5732 5731 5728 5726 5724 5723 5721 5720 5718 5716 5714 5713 5710 5707 5704 5702 5700 5697 5695 5691 5686 5685 5686 5682 5677 5675 5672 5668 5666 5664 5661 5658 5656 5653 5651 5648 5646 5644 5641 5639 5637 5635 5632 5630 5628 5626 5624 5621 5619 5617 5614 5613 5611 5610 5608 5607 5607 5606 5605 5605 5604 5603 5602 5601 5600 5599 5598 5597 5597 5596 5596 5597 5598 5597 5595 5595
5740 5740 5739 5737 5736 5735 5733 5731 5729 5727 5725 5723 5721 5719 5717 5716 5715 5713 5711 5708 5706 5704 5701 5698 5695 5693 5689 5687 5684 5678 5675 5676 5674 5669 5666 5664 5660 5657 5655 5652 5649 5646 5644 5642 5639 5637 5634 5632 5630 5628 5625 5623 5620 5617 5616 5614 5612 5610 5608 5605 5604 5603 5601 5599 5598 5598 5597 5596 5595 5595 5594 5594 5592 5591 5590 5589 5589 5589 5588 5587 5588 5588 5588 5587 5587
5738 5737 5735 5733 5731 5730 5728 5727 5725 5722 5720 5717 5715 5714 5712 5710 5709 5708 5705 5702 5699 5696 5693 5690 5687 5684 5681 5679 5676 5671 5668 5667 5665 5662 5659 5656 5653 5650 5647 5644 5642 5639 5637 5634 5631 5629 5626 5623 5621 5618 5615 5613 5610 5608 5606 5605 5602 5600 5598 5596 5595 5594 5592 5591 5590 5588 5588 5587 5586 5586 5587 5585 5583 5582 5582 5581 5581 5581 5581 5580 5580 5581 5581 5580 5579
5734 5733 5731 5729 5727 5725 5723 5722 5720 5718 5716 5713 5710 5709 5706 5704 5704 5702 5698 5695 5693 5689 5686 5683 5680 5676 5674 5671 5669 5665 5662 5660 5657 5654 5652 5649 5646 5643 5639 5636 5634 5632 5629 5627 5624 5621 5618 5615 5611 5608 5605 5602 5600 5598 5596 5594 5592 5591 5589 5586 5585 5584 5583 5582 5580 5579 5578 5577 5577 5578 5578 5577 5575 5573 5573 5573 5573 5573 5573 5573 5573 5574 5573 5572 5571
5731 5729 5727 5725 5723 5721 5719 5717 5715 5713 5711 5708 5705 5702 5700 5698 5697 5694 5691 5688 5685 5682 5679 5676 5672 5669 5666 5664 5661 5659 5656 5653 5650 5646 5644 5641 5638 5635 5632 5629 5627 5624 5620 5617 5615 5612 5608 5604 5601 5598 5595 5592 5590 5587 5584 5582 5581 5580 5578 5576 5574 5574 5573 5571 5570 5570 5568 5567 5566 5567 5568 5567 5566 5565 5565 5564 5564 5564 5564 5564 5565 5566 5565 5564 5564
5727 5725 5724 5722 5720 5717 5715 5713 5710 5707 5705 5702 5698 5694 5693 5692 5689 5686 5683 5680 5677 5675 5672 5669 5665 5662 5659 5657 5655 5652 5649 5647 5643 5640 5637 5633 5630 5627 5625 5622 5619 5615 5611 5607 5604 5601 5598 5594 5590 5587 5584 5582 5579 5576 5574 5572 5571 5569 5568 5565 5564 5563 5562 5561 5561 5561 5559 5557 5555 5555 5556 5556 5556 5556 5557 5557 5557 5557 5556 5556 5556 5557 5556 5556 5556
5723 5721 5719 5717 5715 5712 5710 5707 5704 5701 5698 5696 5691 5687 5685 5686 5683 5679 5676 5674 5671 5669 5667 5664 5660 5657 5654 5651 5649 5646 5643 5640 5637 5633 5630 5626 5621 5619 5616 5612 5608 5604 5600 5596 5592 5589 5586 5583 5579 5576 5574 5571 5569 5567 5565 5564 5562 5561 5559 5558 5555 5554 5553 5552 5551 5552 5551 5548 5546 5546 5546 5545 5545 5546 5548 5548 5549 5549 5548 5548 5548 5548 5548 5547 5548
5719 5717 5714 5712 5710 5707 5704 5702 5699 5696 5693 5690 5687 5682 5679 5679 5677 5674 5670 5668 5666 5664 5661 5658 5655 5652 5649 5646 5643 5640 5636 5633 5629 5626 5622 5618 5614 5610 5607 5602 5598 5594 5590 5586 5583 5579 5577 5574 5571 5568 5566 5564 5562 5560 5558 5557 5555 5554 5553 5551 5549 5548 5546 5545 5544 5544 5543 5541 5540 5539 5538 5537 5537 5537 5538 5538 5538 5539 5539 5539 5539 5540 5540 5540 5541
5714 5712 5710 5708 5705 5702 5700 5697 5694 5691 5688 5685 5682 5679 5674 5672 5671 5669 5665 5662 5660 5659 5655 5652 5649 5647 5643 5640 5637 5634 5631 5627 5623 5619 5615 5610 5606 5602 5598 5593 5589 5585 5581 5578 5575 5572 5569 5567 5564 5562 5560 5558 5556 5555 5553 5551 5550 5548 5547 5546 5544 5543 5542 5540 5539 5539 5537 5536 5535 5534 5532 5531 5530 5530 5529 5529 5529 5529 5528 5528 5529 5530 5531 5532 5533
5710 5708 5705 5703 5701 5698 5695 5692 5688 5685 5683 5679 5676 5674 5671 5667 5665 5663 5659 5656 5654 5652 5650 5646 5643 5640 5637 5634 5630 5627 5624 5621 5617 5612 5608 5603 5598 5594 5589 5585 5581 5578 5575 5572 5569 5566 5564 5562 5559 5557 5556 5554 5552 5550 5548 5547 5545 5544 5542 5541 5539 5538 5537 5536 5535 5534 5532 5531 5530 5528 5526 5525 5524 5523 5522 5521 5520 5519 5518 5518 5518 5519 5520 5522 5523
5706 5704 5701 5698 5696 5692 5689 5686 5683 5680 5677 5674 5671 5668 5665 5662 5660 5657 5654 5650 5648 5645 5643 5640 5637 5634 5631 5628 5624 5621 5617 5613 5610 5605 5600 5595 5591 5587 5583 5579 5575 5572 5569 5566 5564 5562 5560 5557 5555 5553 5552 5550 5548 5547 5545 5543 5541 5540 5538 5536 5535 5534 5532 5531 5530 5529 5527 5526 5525 5523 5521 5520 5518 5517 5515 5514 5512 5510 5509 5509 5509 5509 5510 5512 5513
5701 5699 5695 5693 5690 5687 5684 5681 5678 5674 5672 5669 5666 5663 5660 5657 5654 5652 5649 5645 5642 5639 5636 5634 5631 5628 5625 5622 5618 5614 5610 5606 5602 5598 5593 5589 5584 5581 5577 5574 5571 5568 5565 5562 5560 5558 5556 5554 5552 5550 5548 5546 5545 5543 5541 5539 5537 5536 5534 5532 5531 5529 5528 5526 5525 5524 5522 5521 5519 5518 5517 5515 5513 5512 5510 5508 5506 5504 5502 5502 5501 5501 5502 5503 5505
5695 5693 5690 5687 5684 5681 5678 5675 5672 5669 5666 5663 5661 5658 5655 5652 5649 5646 5643 5640 5637 5634 5631 5628 5625 5622 5619 5615 5612 5608 5604 5600 5595 5591 5587 5584 5580 5576 5573 5571 5568 5565 5562 5559 5557 5555 5553 5551 5549 5547 5545 5543 5541 5539 5538 5536 5534 5532 5530 5528 5527 5525 5524 5522 5520 5519 5517 5516 5514 5513 5511 5510 5508 5507 5505 5503 5501 5499 5497 5496 5496 5495 5495 5496 5497
5690 5687 5684 5681 5678 5675 5673 5670 5667 5664 5661 5658 5655 5652 5650 5647 5644 5641 5638 5635 5633 5629 5626 5623 5620 5616 5613 5609 5606 5602 5597 5593 5590 5586 5582 5579 5576 5573 5570 5568 5565 5562 5560 5557 5555 5553 5551 5548 5546 5544 5542 5541 5539 5537 5535 5533 5531 5529 5527 5525 5523 5521 5520 5518 5516 5514 5513 5511 5510 5508 5506 5505 5504 5502 5500 5499 5497 5495 5494 5492 5492 5491 5491 5490 5491
5686 5683 5680 5677 5674 5671 5668 5665 5662 5659 5656 5653 5650 5647 5645 5642 5639 5636 5634 5631 5628 5625 5621 5618 5614 5611 5607 5603 5599 5596 5592 5588 5585 5581 5578 5575 5572 5570 5567 5564 5562 5559 5557 5554 5552 5550 5548 5546 5544 5542 5540 5538 5536 5534 5532 5530 5528 5526 5523 5521 5519 5517 5516 5514 5512 5510 5508 5507 5505 5503 5502 5500 5498 5497 5495 5494 5493 5491 5490 5488 5487 5487 5486 5486 5485
5681 5678 5675 5672 5669 5666 5663 5660 5657 5654 5651 5648 5646 5643 5640 5637 5635 5632 5629 5626 5623 5620 5616 5613 5609 5605 5602 5598 5594 5590 5587 5584 5580 5577 5574 5572 5569 5566 5564 5561 5559 5556 5554 5551 5549 5547 5545 5543 5541 5539 5537 5535 5533 5531 5529 5526 5524 5522 5519 5517 5515 5513 5511 5509 5507 5506 5504 5502 5500 5499 5497 5495 5494 5492 5491 5489 5488 5486 5485 5484 5483 5482 5481 5480 5480
5676 5673 5670 5667 5664 5661 5658 5655 5653 5650 5647 5644 5641 5639 5636 5633 5630 5627 5624 5621 5617 5614 5611 5607 5604 5600 5596 5593 5589 5586 5582 5579 5576 5574 5571 5568 5566 5563 5561 5558 5556 5553 5551 5548 5546 5544 5542 5540 5538 5536 5534 5532 5530 5528 5526 5523 5521 5518 5516 5513 5511 5509 5507 5505 5502 5500 5499 5497 5495 5494 5492 5490 5489 5487 5486 5484 5483 5481 5480 5479 5478 5477 5476 5475 5474
5672 5669 5666 5663 5660 5657 5654 5651 5648 5645 5643 5640 5637 5634 5631 5628 5625 5622 5619 5616 5612 5609 5606 5602 5599 5595 5591 5588 5584 5581 5578 5575 5573 5570 5568 5565 5563 5560 5557 5555 5552 5550 5548 5545 5543 5541 5539 5537 5535 5533 5531 5529 5527 5525 5522 5520 5517 5514 5512 5510 5507 5505 5503 5501 5499 5496 5494 5492 5491 5489 5487 5485 5483 5482 5480 5478 5477 5476 5475 5473 5472 5471 5470 5469 5468
5667 5664 5661 5658 5655 5652 5649 5647 5644 5641 5638 5636 5633 5630 5627 5624 5621 5617 5614 5611 5607 5604 5600 5597 5593 5590 5587 5583 5580 5577 5575 5572 5570 5567 5565 5562 5559 5557 5554 5551 5549 5547 5544 5542 5540 5538 5536 5533 5531 5529 5527 5525 5522 5520 5518 5516 5513 5510 5507 5505 5503 5501 5499 5497 5495 5493 5490 5488 5486 5484 5482 5480 5478 5476 5474 5473 5471 5470 5468 5467 5466 5464 5464 5463 5462
5663 5660 5657 5654 5651 5648 5645 5643 5640 5637 5634 5632 5629 5626 5622 5619 5616 5613 5609 5606 5602 5599 5595 5592 5589 5585 5582 5580 5577 5574 5572 5569 5567 5564 5561 5559 5556 5553 5551 5548 5546 5543 5541 5539 5537 5534 5532 5530 5527 5525 5523 5520 5518 5515 5513 5511 5509 5506 5503 5501 5499 5497 5495 5493 5491 5488 5486 5485 5483 5480 5478 5476 5473 5471 5469 5467 5465 5463 5462 5460 5458 5457 5456 5455 5454
5659 5656 5653 5650 5647 5644 5642 5639 5636 5633 5631 5628 5625 5621 5618 5615 5611 5608 5604 5601 5598 5594 5591 5588 5585 5582 5579 5576 5574 5571 5569 5566 5563 5561 5558 5555 5553 5550 5547 5545 5542 5540 5538 5535 5533 5531 5528 5526 5524 5521 5519 5516 5513 5511 5508 5506 5504 5501 5499 5496 5494 5492 5490 5488 5486 5483 5481 5479 5477 5475 5473 5471 5468 5466 5463 5461 5459 5457 5455 5453 5451 5449 5448 5447 5445
5655 5652 5649 5646 5644 5641 5638 5635 5633 5630 5627 5624 5620 5617 5614 5610 5607 5603 5600 5596 5593 5590 5587 5584 5581 5578 5575 5573 5570 5568 5565 5562 5560 5557 5554 5552 5549 5546 5544 5541 5539 5536 5534 5531 5529 5527 5524 5522 5519 5517 5515 5512 5510 5506 5504 5502 5500 5497 5494 5492 5489 5487 5485 5482 5480 5477 5475 5472 5470 5468 5466 5464 5462 5459 5456 5454 5452 5449 5447 5445 5443 5441 5440 5438 5437
5652 5649 5646 5643 5640 5637 5634 5631 5629 5626 5623 5620 5616 5613 5609 5606 5603 5599 5596 5592 5589 5586 5583 5580 5577 5574 5572 5569 5567 5564 5561 5559 5556 5553 5551 5548 5545 5543 5540 5537 5535 5532 5530 5527 5525 5523 5520 5518 5515 5513 5511 5508 5506 5503 5499 5497 5495 5493 5490 5487 5485 5482 5480 5477 5474 5472 5469 5466 5463 5461 5459 5456 5454 5452 5449 5446 5444 5441 5439 5436 5434 5432 5430 5428 5427
5648 5645 5642 5639 5636 5634 5631 5628 5625 5622 5619 5616 5612 5609 5605 5602 5598 5595 5591 5588 5585 5582 5579 5576 5573 5571 5568 5565 5563 5560 5558 5555 5552 5550 5547 5544 5542 5539 5536 5534 5531 5529 5526 5524 5521 5519 5516 5514 5511 5509 5507 5504 5502 5499 5496 5493 5490 5488 5485 5483 5480 5477 5475 5472 5469 5466 5463 5460 5457 5454 5451 5448 5445 5442 5440 5437 5434 5431 5428 5426 5424 5421 5419 5417 5416
5645 5642 5639 5636 5633 5630 5627 5624 5621 5618 5615 5612 5608 5605 5601 5597 5594 5591 5587 5584 5581 5578 5575 5572 5569 5567 5564 5562 5559 5556 5554 5551 5548 5546 5543 5540 5538 5535 5533 5530 5528 5525 5522 5520 5517 5515 5512 5510 5507 5505 5502 5500 5498 5495 5492 5489 5486 5484 5481 5478 5475 5472 5469 5466 5463 5460 5457 5453 5450 5446 5443 5440 5436 5433 5429 5426 5423 5420 5417 5414 5411 5409 5406 5404 5403
5641 5638 5635 5632 5629 5627 5624 5620 5617 5614 5611 5607 5604 5601 5597 5593 5590 5587 5583 5580 5577 5574 5571 5568 5565 5563 5560 5558 5555 5552 5550 5547 5545 5542 5539 5537 5534 5532 5529 5526 5524 5521 5519 5516 5513 5511 5509 5506 5503 5501 5498 5495 5493 5491 5488 5484 5482 5479 5476 5473 5470 5467 5464 5460 5457 5453 5450 5446 5443 5439 5435 5431 5427 5423 5419 5415 5411 5408 5405 5401 5398 5395 5393 5391 5389
5639 5636 5633 5629 5626 5623 5620 5617 5614 5610 5607 5603 5600 5596 5593 5589 5586 5582 5579 5576 5573 5570 5567 5564 5561 5559 5556 5554 5551 5549 5546 5543 5541 5538 5536 5533 5530 5528 5525 5523 5520 5518 5515 5512 5510 5507 5505 5502 5500 5497 5494 5491 5488 5486 5483 5480 5477 5475 5472 5468 5465 5462 5458 5455 5451 5448 5444 5439 5435 5431 5426 5422 5417 5413 5408 5404 5400 5396 5393 5389 5386 5383 5380 5378 5376